Regional Weather Roundup
Issued by NWS Grand Forks, ND

Home | Current Version | Previous Version | Graphics & Text | Print | Product List | Glossary On
Versions: 1 2 3 4 5 6 7 8 9 10 11 12 13 14 15 16 17 18 19 20 21 22 23 24 25 26 27 28 29 30 31 32 33 34 35 36 37 38 39 40 41 42 43 44 45 46 47 48 49 50
000
ASUS43 KFGF 040031
RWRFGF
PRAIRIE TO PINES  WEATHER ROUNDUP
NATIONAL WEATHER SERVICE EASTERN NORTH DAKOTA/GRAND FORKS ND
600 PM CST TUE MAR 03 2015

 **SATELLITE DATA USED TO AUGMENT SKY COVER AT AUTOMATED STATIONS**
 *****  WEATHER ACROSS EASTERN NORTH DAKOTA  *****

CITY           SKY/WX    TMP DP  RH WIND       PRES   REMARKS
GRAND FORKS    LGT SNOW   5   0  78 NW20      29.95R WCI -15
6HR MIN TEMP:   6; 6HR MAX TEMP:  11; 6HR PCP: TRACE;

GRAND FRKS AFB MOCLDY     5  -6  61 NW21G29   29.93R WCI -16
GRAND FRKS NWS   N/A      5 N/A N/A NW10        N/A  WCI -10
DEVILS LAKE    PTCLDY     1  -9  60 NW24      29.93R WCI -22
6HR MIN TEMP:   1; 6HR MAX TEMP:   3;

FARGO          FLURRIES   8  -4  58 NW25      29.97R WCI -13
WAHPETON ARPT  PTCLDY     9   0  66 NW25      29.99R WCI -13
$$

 ***** WEATHER ACROSS CENTRAL AND WESTERN NORTH DAKOTA  *****

CITY           SKY/WX    TMP DP  RH WIND       PRES   REMARKS
BISMARCK       PTCLDY     9  -1  64 NW12G22   30.02S WCI  -6
6HR MIN TEMP:  10; 6HR MAX TEMP:  14; 6HR PCP: TRACE;

MINOT          PTCLDY     2  -9  60 W24       29.98R WCI -21
6HR MIN TEMP:   2; 6HR MAX TEMP:   5; 6HR PCP: TRACE;

JAMESTOWN      PTCLDY     5  -5  63 NW25G36   29.95S WCI -18
6HR MIN TEMP:   5; 6HR MAX TEMP:  10; 6HR PCP: TRACE;

MINOT AFB      PTCLDY     1  -6  71 NW20      29.97S WCI -20
GARRISON         N/A      4  -6  63 NW21      29.98S WCI -17
WILLISTON      CLEAR      7  -4  60 NW13      30.01F WCI  -9
6HR MIN TEMP:   7; 6HR MAX TEMP:  11; 6HR PCP: TRACE;

DICKINSON      PTCLDY    10  -5  50 W17G26    29.93S WCI  -8
6HR MIN TEMP:  10; 6HR MAX TEMP:  16;

HETTINGER      PTCLDY    13  -6  42 NW23G31   29.96S WCI  -6
6HR MIN TEMP:  12; 6HR MAX TEMP:  18;

$$

 *****  OTHER AIRPORT OBSERVATIONS IN OUR AREA  *****

CITY           SKY/WX    TMP DP  RH WIND       PRES   REMARKS
WALHALLA         N/A      1  -6  71 NW12G18   29.92R WCI -15
GRAFTON AIRPOR NOT AVBL
VALLEY CITY AR FLURRIES   5  -2  72 NW25G37   29.95S WCI -18
CANDO          MOCLDY     0  -6  78 NW24G31   29.93R WCI -24
CAVALIER APRT  FAIR       1  -8  66 NW15G23   29.92R WCI -18
GWINNER        MOCLDY    10  -2  56 NW20G31   30.00R WCI  -8
ROLLA          FAIR       0 -11  60 W18G26    29.88R WCI -22
 ***** THE ABOVE OBSERVATIONS ARE NON NWS ARE NOT QUALITY
       CONTROLLED AND MAY MIS-REPORT RAIN FOR SNOW...
$$

  *****  WEATHER ACROSS NORTHERN MINNESOTA  *****

CITY           SKY/WX    TMP DP  RH WIND       PRES   REMARKS
FLAG ISLAND    MOCLDY     1  -6  71 NW17G26   29.77R HAZE    WCI -19
WARROAD        LGT SNOW   3  -2  78 W12       29.81R WCI -13
ROSEAU         MOCLDY     3  -4  72 W13G20    29.83R WCI -14
HALLOCK        PTCLDY     1  -8  66 NW21G26   29.90R WCI -20
THF RVR FALLS  MOCLDY     1   0  92 W16G25    29.87S WCI -18
6HR MIN TEMP:   1; 6HR MAX TEMP:  10;

BAUDETTE       PTCLDY     4  -8  57 W16G24    29.76R WCI -15
6HR MIN TEMP:   4; 6HR MAX TEMP:  13;

WASKISH        MOCLDY     3  -2  78 W12G18    29.80R WCI -13
CROOKSTON      CLEAR      7   0  72 NW26      29.93R HAZE    WCI -16
$$
  *****  WEATHER ACROSS CENTRAL AND WEST MINNESOTA  *****

CITY           SKY/WX    TMP DP  RH WIND       PRES   REMARKS
FOSSTON        PTCLDY     0  -8  71 NW16      29.88R WCI -21
BEMIDJI        PTCLDY     3  -4  73 W16G22    29.81R WCI -16
PARK RAPIDS    MOCLDY     5  -4  66 NW16      29.83R WCI -14
6HR MIN TEMP:   5; 6HR MAX TEMP:  17; 6HR PCP: TRACE;

ELBOW LAKE     MOCLDY     7   1  75 NW21G26   29.94R WCI -13
6HR MIN TEMP:   8; 6HR MAX TEMP:  13;

WADENA         PTCLDY     5  -2  72 W14G24    29.86R WCI -12
DETROIT LAKES  PTCLDY     7   0  72 NW17G25   29.89R WCI -12
MOORHEAD       CLEAR      9  -2  61 NW28G33   29.96R WCI -13
FERGUS FALLS   PTCLDY     7  -2  66 NW20G25   29.98R WCI -13
MORRIS MN      PTCLDY     9   1  72 NW21G30   29.95R HAZE    WCI -11
STAPLES        PTCLDY     7   0  72 NW17G28   29.84R HAZE    WCI -12
$$
  *****  WEATHER ELSEWHERE ACROSS MINNESOTA  *****

CITY           SKY/WX    TMP DP  RH WIND       PRES   REMARKS
DULUTH         PTCLDY    15   0  51 NW24G30   29.64R WCI  -4
6HR MIN TEMP:  15; 6HR MAX TEMP:  26; 6HR PCP: TRACE;

INTRNTL FALLS  CLEAR      6  -9  50 NW22G28   29.72R WCI -15
6HR MIN TEMP:   6; 6HR MAX TEMP:  16;

ELY            CLEAR     10  -2  56 W9        29.63R WCI  -2
CLOQUET        CLEAR     14   1  57 W16       29.71R WCI  -2
WHEATON        CLEAR      7   1  78 W17G26    30.01R WCI -12
BRAINERD       PTCLDY    10  -1  61 NW15      29.82R WCI  -7
6HR MIN TEMP:  12; 6HR MAX TEMP:  22;

HIBBING        CLOUDY    11  -2  56 W14G22    29.68R WCI  -5
6HR MIN TEMP:  11; 6HR MAX TEMP:  23; 6HR PCP: TRACE;

ALEXANDRIA     MOCLDY     8   0  69 NW22G28   29.88R WCI -12
6HR MIN TEMP:   8; 6HR MAX TEMP:  17; 6HR PCP: TRACE;

SAINT CLOUD    PTCLDY    13   2  61 W17G26    29.85R WCI  -4
6HR MIN TEMP:  13; 6HR MAX TEMP:  25; 6HR PCP: TRACE;

MINNEAPOLIS    PTCLDY    18   8  65 W21       29.84R WCI   1
6HR MIN TEMP:  18; 6HR MAX TEMP:  29; 6HR PCP:  0.01;

$$

  *****  WEATHER ACROSS SOUTH DAKOTA  *****

CITY           SKY/WX    TMP DP  RH WIND       PRES   REMARKS
SIOUX FALLS    MOCLDY    13   4  67 NW20      30.02R WCI  -5
6HR MIN TEMP:  13; 6HR MAX TEMP:  20; 6HR PCP: TRACE;

BROOKINGS      NOT AVBL
WATERTOWN      PTCLDY     9   0  67 NW21      29.95R WCI -11
6HR MIN TEMP:   9; 6HR MAX TEMP:  12; 6HR PCP: TRACE;

HURON          CLEAR     15   2  56 N12       30.03S WCI   2
6HR MIN TEMP:  14; 6HR MAX TEMP:  17;

SISSETON         N/A     10   0  63 N22       29.97  WCI -10
ABERDEEN       CLEAR     13   1  59 NW23G30   30.02R WCI  -6
6HR MIN TEMP:  11; 6HR MAX TEMP:  15; 6HR PCP: TRACE;

MITCHELL       PTCLDY    17   5  59 NW12      30.06R WCI   4
PIERRE         CLEAR     19   1  45 NW20G28   30.01R WCI   3
6HR MIN TEMP:  15; 6HR MAX TEMP:  21;

MOBRIDGE       CLEAR     18  -3  39 NW22G28   29.97R WCI   1
RAPID CITY     PTCLDY    14   2  58 N24G31    29.95R WCI  -5
6HR MIN TEMP:  14; 6HR MAX TEMP:  18;

$$

  *****  SOME WEATHER IN NEARBY STATES *****

CITY           SKY/WX    TMP DP  RH WIND       PRES   REMARKS
GLASGOW MT     MOCLDY    17  -8  32 NW29G36   29.99F WCI  -2
6HR MIN TEMP:  10; 6HR MAX TEMP:  18;

GREAT FALLS MT SUNNY     19   4  51 W10       30.02S WCI   7
6HR MIN TEMP:   9; 6HR MAX TEMP:  19;

CHEYENNE WY    SNOW      10   4  76 NE9       29.78S VSB 1/2 WCI  -3
6HR MIN TEMP:  11; 6HR MAX TEMP:  15; 6HR PCP: TRACE;

SCOTTSBLUFF NE CLOUDY    19   7  59 N10       29.94R WCI   7
6HR MIN TEMP:  19; 6HR MAX TEMP:  23; 6HR PCP: TRACE;

OMAHA NE       CLOUDY    28  11  48 N16       29.99R WCI  16
6HR MIN TEMP:  28; 6HR MAX TEMP:  36;

DES MOINES IA  CLOUDY    29  18  63 N18G25    29.93R WCI  16
6HR MIN TEMP:  29; 6HR MAX TEMP:  36;

DAVENPORT IA   CLOUDY    32  24  72 NW17      29.79R WCI  21
6HR MIN TEMP:  32; 6HR MAX TEMP:  34;

CHICAGO IL     CLOUDY    33  28  81 W13       29.75R WCI  24
6HR MIN TEMP:  32; 6HR MAX TEMP:  34; 6HR PCP: TRACE;

EAU CLAIRE WI  MOCLDY    27  15  61 NW12      29.72R WCI  17
6HR MIN TEMP:  25; 6HR MAX TEMP:  29; 6HR PCP: TRACE;

LA CROSSE WI   CLOUDY    31  21  66 W13       29.74R WCI  21
6HR MIN TEMP:  28; 6HR MAX TEMP:  34;

$$

  *****  SOME NATIONAL WEATHER *****

CITY           SKY/WX    TMP DP  RH WIND       PRES   REMARKS
LA GUARDIA NY  LGTSLEET  34  28  80 S12G18    30.08F FOG
6HR MIN TEMP:  29; 6HR MAX TEMP:  32; 6HR PCP:  0.25;

RALEIGH NC     DRIZZLE   36  33  89 CALM      30.17F FOG
6HR MIN TEMP:  36; 6HR MAX TEMP:  40; 6HR PCP:  0.03;

ATLANTA GA     FOG       51  50  96 E7        30.11S VSB<1/4
6HR MIN TEMP:  51; 6HR MAX TEMP:  54; 6HR PCP:  0.06;

NEW ORLEANS LA MOCLDY    73  64  73 S14       30.00S
6HR MIN TEMP:  73; 6HR MAX TEMP:  80;

OKLAHOMA CITY  CLOUDY    53  42  66 NW7       29.83R
6HR MIN TEMP:  51; 6HR MAX TEMP:  58;

ALBUQUERQUE NM MOSUNNY   56  27  32 NW9       29.74F
6HR MIN TEMP:  45; 6HR MAX TEMP:  56;

SALT LAKE CITY FLURRIES  36  24  62 N12       29.91S
6HR MIN TEMP:  31; 6HR MAX TEMP:  38; 6HR PCP:  0.01;

LOS ANGELES CA MOSUNNY   60  46  59 W17       29.90F
6HR MIN TEMP:  59; 6HR MAX TEMP:  63;

BOISE ID       SUNNY     43  14  31 NW17G28   30.01S


USA.gov is the U.S. government's official web portal to all federal, state and local government web resources and services.